CFG3MT LGIR-EDDF

Flight info

Callsign CFG3MT
Flight time 2h 52m
Altitude 34000
Route EPALO UM749 DIRMI UL613 XANIS DCT DIMIS DCT PETAK DCT GLOMY DCT ELTIB DCT TUPUS DCT GORPA DCT SIMBA DCT AKINI T161 DEBHI DEBHI1B
Aircraft A321/M-SDE3FGHIRWY/LB1

Departure

Time 2026-05-06 09:27
Airport Heraklion International Nikos Kazantzakis Airport (LGIR)

Arrival

Time 2026-05-06 12:20
Airport Frankfurt Main Airport (EDDF)
Time Latitude Longitude Altitude Speed Heading
2026-05-06 08:41 35.33812 25.17540 91 ft 0 kts 316°
2026-05-06 09:23 35.33819 25.17532 93 ft 4 kts 319°
2026-05-06 09:23 35.33865 25.17500 91 ft 9 kts 349°
2026-05-06 09:23 35.33907 25.17545 93 ft 11 kts 81°
2026-05-06 09:23 35.33900 25.17669 93 ft 19 kts 95°
2026-05-06 09:24 35.33889 25.17828 93 ft 18 kts 95°
2026-05-06 09:24 35.33878 25.17975 91 ft 17 kts 95°
2026-05-06 09:24 35.33869 25.18112 93 ft 15 kts 95°
2026-05-06 09:24 35.33860 25.18240 93 ft 16 kts 94°
2026-05-06 09:25 35.33850 25.18404 92 ft 20 kts 95°
2026-05-06 09:25 35.33839 25.18574 94 ft 19 kts 94°
2026-05-06 09:25 35.33830 25.18735 90 ft 18 kts 94°
2026-05-06 09:25 35.33819 25.18877 92 ft 15 kts 95°
2026-05-06 09:26 35.33850 25.18984 90 ft 14 kts 56°
2026-05-06 09:26 35.33907 25.19016 88 ft 10 kts 300°
2026-05-06 09:26 35.33916 25.18877 88 ft 38 kts 274°
2026-05-06 09:26 35.33959 25.18246 95 ft 108 kts 275°
2026-05-06 09:27 35.34040 25.17106 95 ft 161 kts 274°
2026-05-06 09:27 35.34134 25.15695 635 ft 164 kts 275°
2026-05-06 09:27 35.34482 25.14381 1284 ft 164 kts 316°
2026-05-06 09:27 35.35479 25.13758 1815 ft 163 kts 348°
2026-05-06 09:28 35.36630 25.13402 2043 ft 178 kts 347°
2026-05-06 09:28 35.37870 25.12996 2205 ft 194 kts 346°
2026-05-06 09:28 35.39222 25.12541 2362 ft 208 kts 343°
2026-05-06 09:28 35.40661 25.12046 2498 ft 221 kts 343°
2026-05-06 09:29 35.42211 25.11500 2664 ft 240 kts 343°
2026-05-06 09:29 35.43888 25.10907 3010 ft 256 kts 343°
2026-05-06 09:29 35.45615 25.10300 3715 ft 259 kts 343°
2026-05-06 09:29 35.47337 25.09691 4435 ft 260 kts 343°
2026-05-06 09:30 35.49060 25.08996 5145 ft 262 kts 333°
2026-05-06 09:30 35.50582 25.07754 5836 ft 264 kts 324°
2026-05-06 09:30 35.52069 25.06407 6522 ft 265 kts 324°
2026-05-06 09:30 35.53541 25.05066 7179 ft 267 kts 324°
2026-05-06 09:31 35.55045 25.03694 7826 ft 270 kts 324°
2026-05-06 09:31 35.56559 25.02315 8454 ft 272 kts 324°
2026-05-06 09:31 35.58089 25.00922 9068 ft 275 kts 325°
2026-05-06 09:31 35.59618 24.99533 9674 ft 277 kts 325°
2026-05-06 09:32 35.61171 24.98122 10285 ft 279 kts 324°
2026-05-06 09:32 35.62789 24.96650 10466 ft 297 kts 324°
2026-05-06 09:32 35.64511 24.95083 10601 ft 316 kts 324°
2026-05-06 09:32 35.66330 24.93426 10772 ft 332 kts 324°
2026-05-06 09:33 35.68185 24.91732 11216 ft 338 kts 324°
2026-05-06 09:33 35.70084 24.89998 11788 ft 341 kts 324°
2026-05-06 09:33 35.72005 24.88244 12360 ft 343 kts 324°
2026-05-06 09:33 35.73932 24.86486 12959 ft 345 kts 323°
2026-05-06 09:34 35.75850 24.84735 13534 ft 347 kts 323°
2026-05-06 09:34 35.77794 24.82955 14107 ft 349 kts 323°
2026-05-06 09:34 35.79755 24.81159 14640 ft 351 kts 323°
2026-05-06 09:34 35.81724 24.79360 15162 ft 353 kts 323°
2026-05-06 09:35 35.83707 24.77544 15685 ft 355 kts 323°
2026-05-06 09:35 35.85674 24.75741 16184 ft 357 kts 323°
2026-05-06 09:35 35.87677 24.73902 16688 ft 359 kts 322°
2026-05-06 09:35 35.89690 24.72052 17187 ft 361 kts 322°
2026-05-06 09:36 35.91710 24.70195 17661 ft 362 kts 322°
2026-05-06 09:36 35.93738 24.68327 18126 ft 364 kts 322°
2026-05-06 09:36 35.95772 24.66452 18572 ft 366 kts 322°
2026-05-06 09:36 35.97792 24.64587 19003 ft 368 kts 322°
2026-05-06 09:37 35.99850 24.62687 19413 ft 369 kts 322°
2026-05-06 09:37 36.01925 24.60776 19816 ft 372 kts 322°
2026-05-06 09:37 36.03987 24.58879 20213 ft 373 kts 322°
2026-05-06 09:37 36.06083 24.56946 20616 ft 375 kts 322°
2026-05-06 09:38 36.07479 24.55656 20878 ft 376 kts 322°
2026-05-06 09:38 36.09583 24.53708 21271 ft 378 kts 322°
2026-05-06 09:38 36.11693 24.51753 21643 ft 380 kts 322°
2026-05-06 09:38 36.13819 24.49784 22017 ft 382 kts 322°
2026-05-06 09:39 36.15924 24.47833 22373 ft 383 kts 322°
2026-05-06 09:39 36.18067 24.45846 22720 ft 385 kts 321°
2026-05-06 09:39 36.20215 24.43853 23085 ft 387 kts 322°
2026-05-06 09:39 36.22384 24.41841 23430 ft 389 kts 321°
2026-05-06 09:40 36.24555 24.39826 23777 ft 390 kts 321°
2026-05-06 09:40 36.26734 24.37801 24118 ft 391 kts 321°
2026-05-06 09:40 36.31088 24.33750 24745 ft 395 kts 321°
2026-05-06 09:41 36.33298 24.31691 25047 ft 397 kts 321°
2026-05-06 09:41 36.35511 24.29627 25344 ft 398 kts 321°
2026-05-06 09:41 36.37736 24.27549 25638 ft 400 kts 322°
2026-05-06 09:41 36.39931 24.25499 25921 ft 401 kts 322°
2026-05-06 09:42 36.42173 24.23404 26201 ft 403 kts 322°
2026-05-06 09:42 36.44427 24.21297 26455 ft 405 kts 322°
2026-05-06 09:42 36.46692 24.19177 26720 ft 407 kts 322°
2026-05-06 09:42 36.48932 24.17080 26993 ft 409 kts 322°
2026-05-06 09:43 36.51212 24.14945 27270 ft 410 kts 322°
2026-05-06 09:43 36.53498 24.12804 27529 ft 411 kts 322°
2026-05-06 09:43 36.55792 24.10657 27771 ft 412 kts 322°
2026-05-06 09:43 36.58069 24.08527 28002 ft 414 kts 322°
2026-05-06 09:44 36.60375 24.06362 28235 ft 415 kts 322°
2026-05-06 09:44 36.62687 24.04186 28456 ft 416 kts 322°
2026-05-06 09:44 36.65007 24.01998 28703 ft 417 kts 322°
2026-05-06 09:44 36.67298 23.99837 28929 ft 418 kts 322°
2026-05-06 09:45 36.69626 23.97642 29134 ft 420 kts 322°
2026-05-06 09:45 36.71973 23.95430 29302 ft 422 kts 322°
2026-05-06 09:45 36.74322 23.93216 29515 ft 423 kts 322°
2026-05-06 09:45 36.76675 23.90991 29810 ft 422 kts 322°
2026-05-06 09:46 36.78985 23.88803 30113 ft 421 kts 322°
2026-05-06 09:46 36.81319 23.86591 30398 ft 420 kts 322°
2026-05-06 09:46 36.83652 23.84379 30673 ft 420 kts 322°
2026-05-06 09:46 36.85980 23.82169 30968 ft 418 kts 322°
2026-05-06 09:47 36.88301 23.79965 31258 ft 418 kts 322°
2026-05-06 09:47 36.90580 23.77801 31533 ft 417 kts 322°
2026-05-06 09:47 36.92898 23.75606 31811 ft 416 kts 322°
2026-05-06 09:47 36.95204 23.73419 32074 ft 416 kts 322°
2026-05-06 09:48 36.97506 23.71229 32334 ft 415 kts 322°
2026-05-06 09:48 36.99803 23.69042 32589 ft 414 kts 322°
2026-05-06 09:48 37.02100 23.66851 32852 ft 414 kts 322°
2026-05-06 09:48 37.04360 23.64693 33094 ft 413 kts 322°
2026-05-06 09:49 37.06651 23.62502 33338 ft 412 kts 322°
2026-05-06 09:49 37.08935 23.60311 33599 ft 411 kts 322°
2026-05-06 09:49 37.11181 23.58154 33852 ft 411 kts 322°
2026-05-06 09:49 37.13449 23.55979 34053 ft 411 kts 322°
2026-05-06 09:50 37.17981 23.51651 34117 ft 407 kts 322°
2026-05-06 09:50 37.22481 23.47339 34119 ft 406 kts 322°
2026-05-06 09:51 37.26977 23.43013 34108 ft 406 kts 322°
2026-05-06 09:51 37.31444 23.38722 34100 ft 405 kts 322°
2026-05-06 09:52 37.35930 23.34403 34097 ft 405 kts 321°
2026-05-06 09:52 37.40367 23.30117 34096 ft 405 kts 322°
2026-05-06 09:53 37.44845 23.25783 34096 ft 405 kts 321°
2026-05-06 09:53 37.49323 23.21449 34088 ft 405 kts 321°
2026-05-06 09:54 37.53773 23.17130 34094 ft 406 kts 321°
2026-05-06 09:54 37.58257 23.12770 34090 ft 406 kts 321°
2026-05-06 09:55 37.62722 23.08432 34090 ft 407 kts 321°
2026-05-06 09:55 37.67212 23.04064 34087 ft 406 kts 321°
2026-05-06 09:56 37.71688 22.99692 34086 ft 406 kts 321°
2026-05-06 09:56 37.76133 22.95337 34089 ft 407 kts 321°
2026-05-06 09:57 37.80610 22.90960 34086 ft 407 kts 321°
2026-05-06 09:57 37.85108 22.86552 34081 ft 407 kts 321°
2026-05-06 09:58 37.89569 22.82178 34082 ft 408 kts 321°
2026-05-06 09:58 37.94058 22.77762 34083 ft 408 kts 321°
2026-05-06 09:59 37.98520 22.73367 34089 ft 408 kts 321°
2026-05-06 09:59 38.03013 22.68930 34102 ft 408 kts 321°
2026-05-06 10:00 38.07472 22.64520 34109 ft 408 kts 321°
2026-05-06 10:00 38.11951 22.60088 34107 ft 407 kts 321°
2026-05-06 10:01 38.16433 22.55648 34105 ft 408 kts 321°
2026-05-06 10:01 38.20894 22.51217 34104 ft 408 kts 321°
2026-05-06 10:02 38.25376 22.46760 34104 ft 408 kts 321°
2026-05-06 10:02 38.29835 22.42312 34111 ft 409 kts 320°
2026-05-06 10:03 38.34317 22.37846 34113 ft 409 kts 321°
2026-05-06 10:03 38.38804 22.33362 34115 ft 409 kts 320°
2026-05-06 10:04 38.43260 22.28893 34116 ft 409 kts 320°
2026-05-06 10:04 38.47741 22.24393 34117 ft 409 kts 320°
2026-05-06 10:05 38.52220 22.19888 34119 ft 409 kts 320°
2026-05-06 10:05 38.56679 22.15411 34121 ft 408 kts 321°
2026-05-06 10:06 38.61149 22.10904 34121 ft 408 kts 320°
2026-05-06 10:06 38.65610 22.06397 34115 ft 408 kts 321°
2026-05-06 10:07 38.70043 22.01918 34114 ft 408 kts 320°
2026-05-06 10:07 38.74517 21.97394 34117 ft 408 kts 320°
2026-05-06 10:08 38.78959 21.92894 34105 ft 409 kts 320°
2026-05-06 10:08 38.83431 21.88355 34101 ft 410 kts 320°
2026-05-06 10:09 38.87889 21.83813 34103 ft 410 kts 320°
2026-05-06 10:09 38.92379 21.79233 34106 ft 411 kts 320°
2026-05-06 10:10 38.96866 21.74654 34110 ft 411 kts 320°
2026-05-06 10:10 39.01319 21.70115 34112 ft 411 kts 320°
2026-05-06 10:11 39.05805 21.65532 34112 ft 411 kts 320°
2026-05-06 10:11 39.10285 21.60936 34118 ft 411 kts 320°
2026-05-06 10:12 39.14739 21.56347 34120 ft 411 kts 320°
2026-05-06 10:12 39.19211 21.51732 34120 ft 411 kts 320°
2026-05-06 10:13 39.23684 21.47112 34123 ft 411 kts 320°
2026-05-06 10:13 39.28138 21.42507 34124 ft 412 kts 320°
2026-05-06 10:14 39.32620 21.37879 34120 ft 411 kts 320°
2026-05-06 10:14 39.37071 21.33264 34126 ft 412 kts 320°
2026-05-06 10:15 39.41552 21.28606 34132 ft 412 kts 320°
2026-05-06 10:15 39.46001 21.23976 34132 ft 412 kts 320°
2026-05-06 10:16 39.50485 21.19303 34132 ft 412 kts 320°
2026-05-06 10:16 39.54922 21.14678 34135 ft 412 kts 320°
2026-05-06 10:17 39.59396 21.10003 34133 ft 411 kts 319°
2026-05-06 10:17 39.63855 21.05334 34130 ft 411 kts 320°
2026-05-06 10:18 39.68289 21.00687 34127 ft 412 kts 319°
2026-05-06 10:18 39.72734 20.96010 34123 ft 412 kts 319°
2026-05-06 10:19 39.77196 20.91313 34125 ft 413 kts 319°
2026-05-06 10:19 39.81671 20.86598 34126 ft 413 kts 319°
2026-05-06 10:20 39.86110 20.81903 34125 ft 413 kts 319°
2026-05-06 10:20 39.90575 20.77176 34121 ft 413 kts 319°
2026-05-06 10:21 39.95024 20.72461 34120 ft 413 kts 319°
2026-05-06 10:21 39.99505 20.67710 34120 ft 414 kts 319°
2026-05-06 10:22 40.03954 20.62977 34123 ft 414 kts 319°
2026-05-06 10:22 40.08559 20.58499 34120 ft 417 kts 328°
2026-05-06 10:23 40.13647 20.54790 34119 ft 417 kts 328°
2026-05-06 10:23 40.18719 20.51076 34119 ft 418 kts 328°
2026-05-06 10:24 40.23772 20.47368 34120 ft 418 kts 328°
2026-05-06 10:24 40.28866 20.43626 34121 ft 419 kts 328°
2026-05-06 10:25 40.33921 20.39910 34124 ft 419 kts 328°
2026-05-06 10:25 40.38156 20.36787 34126 ft 419 kts 328°
2026-05-06 10:26 40.43254 20.33026 34129 ft 419 kts 328°
2026-05-06 10:26 40.48309 20.29283 34131 ft 419 kts 328°
2026-05-06 10:27 40.53400 20.25502 34134 ft 419 kts 328°
2026-05-06 10:27 40.58458 20.21760 34132 ft 419 kts 328°
2026-05-06 10:28 40.63536 20.17986 34129 ft 418 kts 328°
2026-05-06 10:28 40.68589 20.14223 34131 ft 418 kts 328°
2026-05-06 10:29 40.73667 20.10438 34134 ft 418 kts 328°
2026-05-06 10:29 40.78739 20.06651 34137 ft 418 kts 328°
2026-05-06 10:30 40.83782 20.02872 34138 ft 418 kts 328°
2026-05-06 10:30 40.88843 19.99072 34133 ft 417 kts 327°
2026-05-06 10:31 40.93862 19.95287 34110 ft 418 kts 327°
2026-05-06 10:31 40.98942 19.91449 34104 ft 420 kts 327°
2026-05-06 10:32 41.03999 19.87634 34102 ft 421 kts 327°
2026-05-06 10:32 41.09104 19.83779 34105 ft 422 kts 327°
2026-05-06 10:33 41.14179 19.79939 34107 ft 422 kts 327°
2026-05-06 10:33 41.19290 19.76064 34087 ft 422 kts 327°
2026-05-06 10:34 41.24385 19.72189 34083 ft 424 kts 327°
2026-05-06 10:34 41.29523 19.68276 34080 ft 426 kts 327°
2026-05-06 10:35 41.34671 19.64344 34090 ft 427 kts 327°
2026-05-06 10:35 41.39805 19.60421 34096 ft 427 kts 327°
2026-05-06 10:36 41.44982 19.56470 34100 ft 428 kts 327°
2026-05-06 10:36 41.50156 19.52506 34102 ft 428 kts 327°
2026-05-06 10:37 41.55289 19.48557 34106 ft 428 kts 327°
2026-05-06 10:37 41.60453 19.44576 34109 ft 428 kts 326°
2026-05-06 10:38 41.65617 19.40593 34109 ft 428 kts 327°
2026-05-06 10:38 41.70766 19.36624 34107 ft 428 kts 327°
2026-05-06 10:39 41.75936 19.32625 34107 ft 428 kts 326°
2026-05-06 10:39 41.80994 19.28488 34106 ft 427 kts 323°
2026-05-06 10:40 41.85915 19.24025 34107 ft 427 kts 322°
2026-05-06 10:40 41.90824 19.19494 34109 ft 428 kts 322°
2026-05-06 10:41 41.95751 19.15030 34109 ft 428 kts 323°
2026-05-06 10:41 42.00687 19.10596 34110 ft 429 kts 323°
2026-05-06 10:42 42.05674 19.06112 34111 ft 435 kts 323°
2026-05-06 10:42 42.10763 19.01520 34112 ft 445 kts 323°
2026-05-06 10:43 42.15928 18.96854 34110 ft 446 kts 323°
2026-05-06 10:44 42.23654 18.89843 34108 ft 447 kts 322°
2026-05-06 10:44 42.28828 18.85136 34114 ft 448 kts 322°
2026-05-06 10:45 42.33979 18.80448 34115 ft 448 kts 322°
2026-05-06 10:45 42.39169 18.75712 34118 ft 448 kts 322°
2026-05-06 10:46 42.44312 18.71007 34112 ft 449 kts 322°
2026-05-06 10:46 42.49492 18.66245 34112 ft 449 kts 322°
2026-05-06 10:47 42.54671 18.61479 34116 ft 450 kts 322°
2026-05-06 10:47 42.59836 18.56722 34117 ft 450 kts 322°
2026-05-06 10:48 42.65026 18.51946 34121 ft 450 kts 322°
2026-05-06 10:48 42.70190 18.47171 34129 ft 449 kts 322°
2026-05-06 10:49 42.74953 18.42752 34132 ft 447 kts 322°
2026-05-06 10:49 42.80047 18.38025 34126 ft 446 kts 322°
2026-05-06 10:50 42.85183 18.33245 34123 ft 446 kts 322°
2026-05-06 10:50 42.90277 18.28487 34116 ft 445 kts 322°
2026-05-06 10:51 42.95405 18.23704 34105 ft 445 kts 322°
2026-05-06 10:51 43.00505 18.18952 34086 ft 445 kts 322°
2026-05-06 10:52 43.05613 18.14161 34076 ft 445 kts 322°
2026-05-06 10:52 43.10690 18.09374 34068 ft 445 kts 322°
2026-05-06 10:53 43.15803 18.04561 34060 ft 444 kts 322°
2026-05-06 10:53 43.20903 17.99754 34051 ft 444 kts 322°
2026-05-06 10:54 43.25975 17.94953 34020 ft 445 kts 322°
2026-05-06 10:54 43.31097 17.90096 34014 ft 447 kts 322°
2026-05-06 10:55 43.36185 17.85270 34015 ft 447 kts 322°
2026-05-06 10:55 43.41324 17.80391 34013 ft 447 kts 322°
2026-05-06 10:56 43.46426 17.75520 34017 ft 447 kts 322°
2026-05-06 10:56 43.51511 17.70648 34018 ft 447 kts 322°
2026-05-06 10:57 43.56615 17.65736 34022 ft 447 kts 321°
2026-05-06 10:57 43.61516 17.60457 34015 ft 445 kts 317°
2026-05-06 10:58 43.66258 17.54931 34029 ft 445 kts 317°
2026-05-06 10:58 43.70987 17.49459 34023 ft 446 kts 317°
2026-05-06 10:59 43.75782 17.44058 34025 ft 446 kts 318°
2026-05-06 10:59 43.80609 17.38642 34029 ft 446 kts 318°
2026-05-06 11:00 43.85392 17.33221 34019 ft 445 kts 317°
2026-05-06 11:00 43.90209 17.27741 34025 ft 446 kts 317°
2026-05-06 11:01 43.94983 17.22294 34017 ft 447 kts 317°
2026-05-06 11:01 43.99790 17.16807 34023 ft 446 kts 317°
2026-05-06 11:02 44.04568 17.11349 34024 ft 446 kts 317°
2026-05-06 11:02 44.09377 17.05850 34023 ft 446 kts 317°
2026-05-06 11:03 44.14169 17.00363 34023 ft 446 kts 317°
2026-05-06 11:03 44.18917 16.94874 34012 ft 446 kts 317°
2026-05-06 11:04 44.23704 16.89329 34011 ft 446 kts 317°
2026-05-06 11:04 44.28461 16.83831 33997 ft 446 kts 317°
2026-05-06 11:05 44.33340 16.78414 33991 ft 447 kts 320°
2026-05-06 11:05 44.38425 16.73428 33984 ft 449 kts 322°
2026-05-06 11:06 44.43595 16.68482 33976 ft 449 kts 321°
2026-05-06 11:06 44.48724 16.63429 33976 ft 449 kts 321°
2026-05-06 11:07 44.53773 16.58362 33977 ft 449 kts 320°
2026-05-06 11:07 44.58863 16.53240 33979 ft 449 kts 320°
2026-05-06 11:08 44.63929 16.48144 33975 ft 449 kts 320°
2026-05-06 11:08 44.69000 16.43049 33972 ft 449 kts 320°
2026-05-06 11:09 44.74054 16.37949 33970 ft 449 kts 320°
2026-05-06 11:09 44.79143 16.32810 33969 ft 449 kts 320°
2026-05-06 11:10 44.84191 16.27703 33969 ft 449 kts 320°
2026-05-06 11:10 44.89276 16.22549 33970 ft 448 kts 320°
2026-05-06 11:11 44.94316 16.17423 33971 ft 448 kts 320°
2026-05-06 11:11 44.99377 16.12257 33970 ft 448 kts 320°
2026-05-06 11:12 45.04397 16.07115 33963 ft 448 kts 320°
2026-05-06 11:12 45.09454 16.01944 33969 ft 447 kts 320°
2026-05-06 11:13 45.14499 15.96775 33963 ft 447 kts 319°
2026-05-06 11:13 45.18701 15.92460 33963 ft 447 kts 319°
2026-05-06 11:14 45.23725 15.87311 33961 ft 447 kts 320°
2026-05-06 11:14 45.28904 15.82299 33959 ft 449 kts 321°
2026-05-06 11:15 45.34076 15.77405 33964 ft 449 kts 321°
2026-05-06 11:15 45.39261 15.72432 33974 ft 448 kts 321°
2026-05-06 11:16 45.44392 15.67463 33970 ft 448 kts 321°
2026-05-06 11:16 45.49560 15.62442 33974 ft 448 kts 320°
2026-05-06 11:17 45.54717 15.57423 33975 ft 448 kts 320°
2026-05-06 11:17 45.59838 15.52425 33977 ft 448 kts 320°
2026-05-06 11:18 45.64993 15.47393 33976 ft 448 kts 320°
2026-05-06 11:18 45.70153 15.42343 33976 ft 448 kts 320°
2026-05-06 11:19 45.75270 15.37318 33978 ft 447 kts 320°
2026-05-06 11:19 45.80438 15.32323 33979 ft 449 kts 322°
2026-05-06 11:20 45.85758 15.27565 33980 ft 450 kts 323°
2026-05-06 11:20 45.91072 15.22891 33977 ft 450 kts 322°
2026-05-06 11:21 45.96383 15.18113 33974 ft 449 kts 322°
2026-05-06 11:21 46.01646 15.13312 33972 ft 449 kts 322°
2026-05-06 11:22 46.06901 15.08508 33968 ft 450 kts 322°
2026-05-06 11:22 46.12201 15.03669 33969 ft 450 kts 321°
2026-05-06 11:23 46.17506 14.98817 33970 ft 450 kts 321°
2026-05-06 11:23 46.22764 14.94006 33965 ft 450 kts 321°
2026-05-06 11:24 46.28068 14.89131 33964 ft 450 kts 321°
2026-05-06 11:24 46.33359 14.84252 33960 ft 450 kts 321°
2026-05-06 11:25 46.38617 14.79395 33963 ft 451 kts 321°
2026-05-06 11:25 46.43923 14.74483 33950 ft 450 kts 321°
2026-05-06 11:26 46.49207 14.69574 33956 ft 451 kts 321°
2026-05-06 11:26 46.54496 14.64656 33952 ft 451 kts 321°
2026-05-06 11:27 46.59762 14.59757 33929 ft 451 kts 321°
2026-05-06 11:27 46.65024 14.54841 33925 ft 451 kts 321°
2026-05-06 11:28 46.70318 14.49874 33919 ft 452 kts 320°
2026-05-06 11:28 46.75605 14.44913 33913 ft 452 kts 321°
2026-05-06 11:29 46.80855 14.39979 33911 ft 451 kts 320°
2026-05-06 11:29 46.86142 14.34985 33910 ft 452 kts 320°
2026-05-06 11:30 46.91441 14.29968 33908 ft 453 kts 321°
2026-05-06 11:30 46.96710 14.24983 33895 ft 453 kts 320°
2026-05-06 11:31 47.02009 14.19951 33899 ft 454 kts 321°
2026-05-06 11:31 47.07280 14.14936 33885 ft 454 kts 321°
2026-05-06 11:32 47.12586 14.09866 33883 ft 454 kts 321°
2026-05-06 11:32 47.17861 14.04814 33878 ft 455 kts 321°
2026-05-06 11:33 47.23192 13.99703 33872 ft 456 kts 321°
2026-05-06 11:33 47.28491 13.94608 33857 ft 457 kts 320°
2026-05-06 11:34 47.33821 13.89468 33841 ft 457 kts 320°
2026-05-06 11:34 47.39124 13.84346 33834 ft 458 kts 321°
2026-05-06 11:35 47.44472 13.79168 33826 ft 459 kts 320°
2026-05-06 11:35 47.49791 13.73996 33818 ft 459 kts 321°
2026-05-06 11:36 47.55135 13.68792 33813 ft 459 kts 320°
2026-05-06 11:36 47.60443 13.63616 33810 ft 460 kts 320°
2026-05-06 11:37 47.65800 13.58383 33803 ft 460 kts 320°
2026-05-06 11:37 47.71157 13.53126 33800 ft 460 kts 320°
2026-05-06 11:38 47.76470 13.47899 33794 ft 460 kts 320°
2026-05-06 11:38 47.81785 13.42665 33792 ft 460 kts 320°
2026-05-06 11:39 47.87146 13.37366 33785 ft 460 kts 320°
2026-05-06 11:39 47.92456 13.32103 33785 ft 460 kts 320°
2026-05-06 11:40 47.97797 13.26789 33780 ft 460 kts 320°
2026-05-06 11:40 48.03113 13.21502 33765 ft 461 kts 320°
2026-05-06 11:41 48.08462 13.16166 33773 ft 461 kts 320°
2026-05-06 11:41 48.13782 13.10843 33780 ft 462 kts 320°
2026-05-06 11:42 48.19136 13.05470 33780 ft 462 kts 320°
2026-05-06 11:42 48.24133 12.99643 33762 ft 451 kts 307°
2026-05-06 11:43 48.28299 12.92613 33760 ft 449 kts 305°
2026-05-06 11:43 48.32423 12.85638 33780 ft 449 kts 305°
2026-05-06 11:44 48.38042 12.74566 33781 ft 435 kts 289°
2026-05-06 11:44 48.40618 12.66379 33771 ft 435 kts 289°
2026-05-06 11:45 48.43195 12.58117 33781 ft 436 kts 289°
2026-05-06 11:45 48.45760 12.49837 33774 ft 435 kts 289°
2026-05-06 11:46 48.48323 12.41538 33769 ft 435 kts 289°
2026-05-06 11:46 48.50873 12.33309 33770 ft 436 kts 289°
2026-05-06 11:47 48.53428 12.25025 33779 ft 435 kts 289°
2026-05-06 11:47 48.55977 12.16711 33767 ft 435 kts 289°
2026-05-06 11:48 48.58513 12.08441 33786 ft 425 kts 289°
2026-05-06 11:48 48.60956 12.00465 33785 ft 418 kts 288°
2026-05-06 11:49 48.63380 11.92455 33785 ft 418 kts 288°
2026-05-06 11:49 48.65782 11.84495 33784 ft 418 kts 288°
2026-05-06 11:50 48.68204 11.76468 33783 ft 418 kts 288°
2026-05-06 11:50 48.70625 11.68430 33782 ft 419 kts 288°
2026-05-06 11:51 48.73031 11.60408 33782 ft 419 kts 288°
2026-05-06 11:51 48.75432 11.52384 33774 ft 419 kts 288°
2026-05-06 11:52 48.77832 11.44332 33767 ft 419 kts 288°
2026-05-06 11:52 48.80218 11.36317 33774 ft 418 kts 288°
2026-05-06 11:53 48.82609 11.28237 33781 ft 419 kts 287°
2026-05-06 11:53 48.85628 11.20611 33785 ft 433 kts 304°
2026-05-06 11:54 48.90036 11.14190 33788 ft 440 kts 311°
2026-05-06 11:54 48.92282 11.11073 33638 ft 442 kts 310°
2026-05-06 11:54 48.94553 11.07905 33384 ft 442 kts 310°
2026-05-06 11:55 48.96825 11.04728 33088 ft 441 kts 310°
2026-05-06 11:55 48.99087 11.01561 32537 ft 439 kts 310°
2026-05-06 11:55 49.01306 10.98454 32004 ft 436 kts 310°
2026-05-06 11:55 49.03541 10.95317 31471 ft 434 kts 310°
2026-05-06 11:56 49.05758 10.92194 30940 ft 431 kts 310°
2026-05-06 11:56 49.07957 10.89090 30428 ft 428 kts 310°
2026-05-06 11:56 49.10117 10.86040 29912 ft 426 kts 310°
2026-05-06 11:56 49.12294 10.82966 29398 ft 423 kts 310°
2026-05-06 11:57 49.14452 10.79917 28892 ft 420 kts 310°
2026-05-06 11:57 49.16598 10.76883 28380 ft 418 kts 310°
2026-05-06 11:57 49.18723 10.73866 27883 ft 415 kts 310°
2026-05-06 11:57 49.20789 10.70882 27397 ft 411 kts 309°
2026-05-06 11:58 49.22811 10.67803 26919 ft 406 kts 308°
2026-05-06 11:58 49.24770 10.64706 26449 ft 402 kts 308°
2026-05-06 11:58 49.26687 10.61622 25991 ft 398 kts 307°
2026-05-06 11:58 49.28588 10.58550 25535 ft 394 kts 308°
2026-05-06 11:59 49.30452 10.55553 25108 ft 390 kts 308°
2026-05-06 11:59 49.32326 10.52561 24676 ft 386 kts 309°
2026-05-06 11:59 49.34187 10.49607 24252 ft 382 kts 309°
2026-05-06 11:59 49.35997 10.46649 23824 ft 376 kts 304°
2026-05-06 12:00 49.37531 10.43422 23436 ft 373 kts 300°
2026-05-06 12:00 49.39006 10.40174 23052 ft 376 kts 300°
2026-05-06 12:00 49.40511 10.36882 22667 ft 375 kts 301°
2026-05-06 12:00 49.42013 10.33602 22268 ft 374 kts 301°
2026-05-06 12:01 49.43004 10.31438 22016 ft 372 kts 301°
2026-05-06 12:01 49.44493 10.28179 21635 ft 371 kts 301°
2026-05-06 12:01 49.46453 10.23877 21126 ft 369 kts 301°
2026-05-06 12:01 49.47443 10.21698 20874 ft 368 kts 301°
2026-05-06 12:02 49.48887 10.18510 20504 ft 366 kts 301°
2026-05-06 12:02 49.50340 10.15294 20112 ft 365 kts 301°
2026-05-06 12:02 49.51790 10.12088 19748 ft 363 kts 301°
2026-05-06 12:02 49.53240 10.08880 19372 ft 363 kts 301°
2026-05-06 12:03 49.54661 10.05735 19009 ft 361 kts 301°
2026-05-06 12:03 49.56109 10.02520 18635 ft 360 kts 301°
2026-05-06 12:03 49.57516 9.99389 18269 ft 359 kts 301°
2026-05-06 12:03 49.58943 9.96222 17898 ft 358 kts 301°
2026-05-06 12:04 49.60362 9.93068 17540 ft 355 kts 301°
2026-05-06 12:04 49.61764 9.89949 17180 ft 351 kts 301°
2026-05-06 12:04 49.63133 9.86894 16828 ft 348 kts 301°
2026-05-06 12:04 49.64506 9.83827 16468 ft 345 kts 300°
2026-05-06 12:05 49.65867 9.80778 16109 ft 343 kts 300°
2026-05-06 12:05 49.67216 9.77756 15760 ft 341 kts 301°
2026-05-06 12:05 49.68561 9.74739 15399 ft 339 kts 301°
2026-05-06 12:05 49.69897 9.71746 15058 ft 337 kts 301°
2026-05-06 12:06 49.71228 9.68760 14713 ft 336 kts 301°
2026-05-06 12:06 49.72531 9.65830 14373 ft 334 kts 301°
2026-05-06 12:06 49.73847 9.62867 14030 ft 332 kts 301°
2026-05-06 12:06 49.75150 9.59927 13690 ft 330 kts 301°
2026-05-06 12:07 49.76446 9.57004 13352 ft 328 kts 301°
2026-05-06 12:07 49.77737 9.54090 13008 ft 327 kts 301°
2026-05-06 12:07 49.78996 9.51247 12690 ft 324 kts 301°
2026-05-06 12:07 49.80275 9.48357 12353 ft 323 kts 301°
2026-05-06 12:08 49.81541 9.45486 12020 ft 321 kts 301°
2026-05-06 12:08 49.82779 9.42672 11696 ft 319 kts 301°
2026-05-06 12:08 49.84024 9.39830 11372 ft 318 kts 301°
2026-05-06 12:08 49.85266 9.37000 11044 ft 317 kts 301°
2026-05-06 12:09 49.86329 9.34027 10704 ft 313 kts 290°
2026-05-06 12:09 49.87017 9.30800 10064 ft 318 kts 284°
2026-05-06 12:09 49.87634 9.27540 9825 ft 309 kts 284°
2026-05-06 12:09 49.88223 9.24430 9692 ft 299 kts 284°
2026-05-06 12:10 49.88801 9.21385 9528 ft 289 kts 284°
2026-05-06 12:10 49.89368 9.18417 9323 ft 285 kts 284°
2026-05-06 12:10 49.89928 9.15476 9083 ft 283 kts 284°
2026-05-06 12:10 49.90482 9.12556 8811 ft 282 kts 285°
2026-05-06 12:11 49.91038 9.09631 8551 ft 280 kts 285°
2026-05-06 12:11 49.91583 9.06768 8295 ft 279 kts 285°
2026-05-06 12:11 49.92132 9.03880 8027 ft 278 kts 285°
2026-05-06 12:11 49.92678 9.00993 7739 ft 276 kts 284°
2026-05-06 12:12 49.93217 8.98132 7449 ft 275 kts 285°
2026-05-06 12:12 49.93836 8.95374 7173 ft 275 kts 297°
2026-05-06 12:12 49.95036 8.93066 6893 ft 277 kts 320°
2026-05-06 12:12 49.96738 8.91675 6601 ft 279 kts 343°
2026-05-06 12:13 49.98676 8.91402 6303 ft 281 kts
2026-05-06 12:13 50.00593 8.91742 6017 ft 281 kts 13°
2026-05-06 12:13 50.02409 8.92876 5885 ft 283 kts 29°
2026-05-06 12:13 50.04059 8.94570 5542 ft 283 kts 29°
2026-05-06 12:14 50.05876 8.95613 5191 ft 279 kts
2026-05-06 12:14 50.07798 8.95619 4796 ft 276 kts 343°
2026-05-06 12:14 50.09441 8.94351 4707 ft 266 kts 317°
2026-05-06 12:14 50.10560 8.92181 4593 ft 251 kts 293°
2026-05-06 12:15 50.10992 8.89627 4393 ft 240 kts 270°
2026-05-06 12:15 50.10747 8.87121 4152 ft 230 kts 250°
2026-05-06 12:15 50.10199 8.84802 3831 ft 224 kts 249°
2026-05-06 12:15 50.09664 8.82557 3542 ft 219 kts 249°
2026-05-06 12:16 50.09151 8.80381 3260 ft 214 kts 249°
2026-05-06 12:16 50.08651 8.78258 2988 ft 200 kts 249°
2026-05-06 12:16 50.08190 8.76309 2727 ft 184 kts 249°
2026-05-06 12:16 50.07763 8.74503 2485 ft 171 kts 249°
2026-05-06 12:17 50.07378 8.72873 2296 ft 154 kts 249°
2026-05-06 12:17 50.07018 8.71352 2082 ft 146 kts 248°
2026-05-06 12:17 50.06669 8.69873 1880 ft 143 kts 248°
2026-05-06 12:17 50.06329 8.68439 1701 ft 142 kts 248°
2026-05-06 12:18 50.05986 8.66996 1511 ft 142 kts 248°
2026-05-06 12:18 50.05649 8.65542 1288 ft 142 kts 250°
2026-05-06 12:18 50.05314 8.64094 1118 ft 141 kts 248°
2026-05-06 12:18 50.04966 8.62665 931 ft 141 kts 247°
2026-05-06 12:19 50.04628 8.61240 762 ft 142 kts 248°
2026-05-06 12:19 50.04280 8.59792 565 ft 141 kts 248°
2026-05-06 12:19 50.03934 8.58351 380 ft 141 kts 249°
2026-05-06 12:19 50.03624 8.57048 356 ft 112 kts 252°
2026-05-06 12:20 50.03443 8.56289 355 ft 42 kts 253°
2026-05-06 12:20 50.03452 8.55902 348 ft 35 kts 282°
2026-05-06 12:20 50.03489 8.55596 347 ft 20 kts 280°
2026-05-06 12:20 50.03472 8.55389 348 ft 19 kts 248°
2026-05-06 12:21 50.03423 8.55194 344 ft 20 kts 250°
2026-05-06 12:21 50.03377 8.54995 348 ft 20 kts 250°
2026-05-06 12:21 50.03328 8.54792 340 ft 20 kts 249°
2026-05-06 12:21 50.03280 8.54590 338 ft 17 kts 251°
2026-05-06 12:22 50.03331 8.54470 337 ft 10 kts 338°
2026-05-06 12:22 50.03370 8.54447 338 ft 4 kts 339°
2026-05-06 12:22 50.03387 8.54437 340 ft 1 kts 339°
2026-05-06 12:22 50.03388 8.54436 340 ft 0 kts 339°
2026-05-06 12:24 50.03394 8.54433 340 ft 5 kts 339°
2026-05-06 12:24 50.03461 8.54393 343 ft 16 kts 339°
2026-05-06 12:24 50.03585 8.54320 344 ft 20 kts 341°
2026-05-06 12:24 50.03681 8.54406 347 ft 17 kts 66°
2026-05-06 12:25 50.03718 8.54564 346 ft 14 kts 70°
2026-05-06 12:25 50.03758 8.54728 349 ft 20 kts 69°
2026-05-06 12:25 50.03813 8.54964 350 ft 24 kts 70°
2026-05-06 12:25 50.03868 8.55199 352 ft 22 kts 70°
2026-05-06 12:26 50.03921 8.55420 354 ft 21 kts 70°
2026-05-06 12:26 50.03971 8.55631 352 ft 20 kts 69°
2026-05-06 12:26 50.04019 8.55830 355 ft 19 kts 70°
2026-05-06 12:26 50.04090 8.55963 356 ft 15 kts
2026-05-06 12:27 50.04185 8.55917 359 ft 14 kts 344°
2026-05-06 12:27 50.04247 8.55978 359 ft 10 kts 65°
2026-05-06 12:27 50.04260 8.56072 358 ft 8 kts 121°
2026-05-06 12:27 50.04213 8.56110 355 ft 7 kts 160°
2026-05-06 12:28 50.04182 8.56128 360 ft 2 kts 160°
2026-05-06 12:28 50.04179 8.56130 356 ft 0 kts 160°